Location: Shannon
(40.5500°S, 175.4167°E)
Time: 22:12:16
(UTC+00:00)

ADEOS II - Pass Details

Date: 17 November 2025
Orbit: 794 x 794 km, 98.8° (Epoch: 06 December)

Event Time Altitude Azimuth Distance (km) Brightness Sun altitude
Exits shadow 13:17:15 17° 69° (ENE) 1,941 4.0 -27.9°
Maximum altitude 13:20:11 28° 114° (ESE) 1,492 3.8 -27.7°
Drops below altitude 10° 13:24:36 10° 171° (S) 2,398 5.5 -27.4°
Sets 13:27:14 0° 182° (S) 3,336 6.3 -27.2°
